| time (UTC) | temp F | wind direction | speed knots | gust knots | rain 1hr in | rain 24hr in | rain mn in | humidity % | barometer mb |
| 20260510045116 | 74 | 77 | 4.3 | 9.6 | 0.00 | 0.00 | 0.00 | 60 | 1025.0 |
| 20260510044615 | 74 | 143 | 6.1 | 7.8 | 0.00 | 0.00 | 0.00 | 59 | 1025.0 |
| 20260510044116 | 74 | 119 | 5.2 | 7.8 | 0.00 | 0.00 | 0.00 | 59 | 1025.0 |
| 20260510043616 | 75 | 88 | 3.5 | 6.1 | 0.00 | 0.00 | 0.00 | 58 | 1025.0 |
| 20260510043115 | 75 | 109 | 6.1 | 7.0 | 0.00 | 0.00 | 0.00 | 58 | 1025.0 |
| 20260510042617 | 75 | 122 | 3.5 | 10.4 | 0.00 | 0.00 | 0.00 | 58 | 1025.0 |
| 20260510042115 | 74 | 106 | 5.2 | 11.3 | 0.00 | 0.00 | 0.00 | 58 | 1025.0 |
| 20260510041616 | 75 | 99 | 7.8 | 9.6 | 0.00 | 0.00 | 0.00 | 58 | 1025.0 |
| 20260510041115 | 75 | 109 | 3.5 | 8.7 | 0.00 | 0.00 | 0.00 | 59 | 1025.0 |
| 20260510040616 | 75 | 85 | 10.4 | 10.4 | 0.00 | 0.00 | 0.00 | 58 | 1025.0 |
| 20260510040115 | 76 | 103 | 4.3 | 10.4 | 0.00 | 0.00 | 0.00 | 57 | 1025.0 |
| 20260510035616 | 76 | 102 | 7.8 | 8.7 | 0.00 | 0.00 | 0.00 | 56 | 1025.0 |
| 20260510035116 | 75 | 106 | 2.6 | 7.8 | 0.00 | 0.00 | 0.00 | 57 | 1025.0 |
| 20260510034615 | 75 | 94 | 3.5 | 3.5 | 0.00 | 0.00 | 0.00 | 58 | 1025.0 |
| 20260510034115 | 76 | 136 | 2.6 | 10.4 | 0.00 | 0.00 | 0.00 | 57 | 1025.0 |
| 20260510033615 | 76 | 140 | 1.7 | 3.5 | 0.00 | 0.00 | 0.00 | 58 | 1025.0 |
| 20260510033115 | 76 | 112 | 2.6 | 7.8 | 0.00 | 0.00 | 0.00 | 57 | 1025.0 |
| 20260510032615 | 77 | 172 | 3.5 | 4.3 | 0.00 | 0.00 | 0.00 | 56 | 1025.0 |
| 20260510032115 | 77 | 130 | 3.5 | 3.5 | 0.00 | 0.00 | 0.00 | 57 | 1025.0 |
| 20260510031617 | 76 | 167 | 3.5 | 7.8 | 0.00 | 0.00 | 0.00 | 57 | 1025.0 |
| 20260510031116 | 76 | 107 | 4.3 | 10.4 | 0.00 | 0.00 | 0.00 | 56 | 1025.0 |
| 20260510030615 | 76 | 142 | 1.7 | 6.1 | 0.00 | 0.00 | 0.00 | 56 | 1025.0 |
| 20260510030115 | 76 | 129 | 2.6 | 6.1 | 0.00 | 0.00 | 0.00 | 57 | 1025.0 |
| 20260510025615 | 76 | 124 | 7.8 | 9.6 | 0.00 | 0.00 | 0.00 | 56 | 1025.0 |
| 20260510025115 | 75 | 163 | 2.6 | 4.3 | 0.00 | 0.00 | 0.00 | 58 | 1025.0 |
| 20260510024139 | 75 | 104 | 2.6 | 7.0 | 0.00 | 0.00 | 0.00 | 59 | 1025.0 |
| 20260510023615 | 76 | 185 | 5.2 | 7.0 | 0.00 | 0.00 | 0.00 | 57 | 1025.0 |
| 20260510023117 | 75 | 111 | 3.5 | 7.0 | 0.00 | 0.00 | 0.00 | 59 | 1025.0 |
| 20260510022615 | 76 | 161 | 3.5 | 5.2 | 0.00 | 0.00 | 0.00 | 59 | 1025.0 |
| 20260510022118 | 75 | 110 | 3.5 | 7.8 | 0.00 | 0.00 | 0.00 | 59 | 1025.0 |
| 20260510021616 | 76 | 99 | 6.1 | 10.4 | 0.00 | 0.00 | 0.00 | 57 | 1025.0 |
| 20260510021115 | 76 | 115 | 3.5 | 9.6 | 0.00 | 0.00 | 0.00 | 58 | 1025.0 |
| 20260510020615 | 74 | 119 | 3.5 | 7.0 | 0.00 | 0.00 | 0.00 | 60 | 1025.0 |
| 20260510020115 | 75 | 111 | 6.1 | 12.2 | 0.00 | 0.00 | 0.00 | 59 | 1025.0 |
| 20260510015615 | 74 | 155 | 5.2 | 6.1 | 0.00 | 0.00 | 0.00 | 61 | 1026.0 |
| 20260510015118 | 74 | 101 | 5.2 | 6.1 | 0.00 | 0.00 | 0.00 | 60 | 1025.0 |
| 20260510014616 | 75 | 145 | 5.2 | 7.8 | 0.00 | 0.00 | 0.00 | 59 | 1026.0 |
| 20260510014116 | 75 | 86 | 3.5 | 7.0 | 0.00 | 0.00 | 0.00 | 59 | 1026.0 |
| 20260510013616 | 75 | 206 | 1.7 | 6.1 | 0.00 | 0.00 | 0.00 | 59 | 1026.0 |
| 20260510013115 | 74 | 62 | 2.6 | 2.6 | 0.00 | 0.00 | 0.00 | 60 | 1026.0 |
| 20260510012616 | 74 | 147 | 2.6 | 5.2 | 0.00 | 0.00 | 0.00 | 61 | 1026.0 |
| 20260510012115 | 74 | 191 | 2.6 | 5.2 | 0.00 | 0.00 | 0.00 | 60 | 1026.0 |
| 20260510011615 | 73 | 232 | 0.0 | 2.6 | 0.00 | 0.00 | 0.00 | 60 | 1026.0 |
| 20260510011116 | 74 | 244 | 3.5 | 5.2 | 0.00 | 0.00 | 0.00 | 59 | 1026.0 |
| 20260510010616 | 74 | 223 | 2.6 | 3.5 | 0.00 | 0.00 | 0.00 | 59 | 1026.0 |
| 20260510010116 | 73 | 224 | 0.0 | 2.6 | 0.00 | 0.00 | 0.00 | 60 | 1026.0 |
| 20260510005615 | 72 | 205 | 1.7 | 5.2 | 0.00 | 0.00 | 0.00 | 60 | 1027.0 |
| 20260510005115 | 72 | 231 | 1.7 | 5.2 | 0.00 | 0.00 | 0.00 | 60 | 1027.0 |
| 20260510004615 | 73 | 231 | 2.6 | 4.3 | 0.00 | 0.00 | 0.00 | 59 | 1026.0 |
| 20260510004115 | 72 | 156 | 1.7 | 3.5 | 0.00 | 0.00 | 0.00 | 61 | 1027.0 |
| 20260510003615 | 71 | 133 | 3.5 | 4.3 | 0.00 | 0.00 | 0.00 | 61 | 1027.0 |
| 20260510003116 | 71 | 264 | 0.9 | 4.3 | 0.00 | 0.00 | 0.00 | 60 | 1027.0 |
| 20260510002615 | 72 | 150 | 1.7 | 5.2 | 0.00 | 0.00 | 0.00 | 61 | 1027.0 |
| 20260510002115 | 71 | 163 | 1.7 | 4.3 | 0.00 | 0.00 | 0.00 | 62 | 1027.0 |
| 20260510001615 | 71 | 202 | 2.6 | 3.5 | 0.00 | 0.00 | 0.00 | 61 | 1027.0 |
| 20260510001115 | 71 | 205 | 2.6 | 6.1 | 0.00 | 0.00 | 0.00 | 62 | 1027.0 |
| 20260510000616 | 70 | 278 | 2.6 | 4.3 | 0.00 | 0.00 | 0.00 | 62 | 1027.0 |
| 20260510000115 | 70 | 321 | 1.7 | 5.2 | 0.00 | 0.00 | 0.00 | 63 | 1027.0 |
| 20260509235616 | 70 | 341 | 2.6 | 6.1 | 0.00 | 0.00 | 0.00 | 63 | 1027.0 |
| 20260509235115 | 69 | 257 | 2.6 | 5.2 | 0.00 | 0.00 | 0.00 | 63 | 1027.0 |
| 20260509234617 | 68 | 180 | 0.9 | 6.1 | 0.00 | 0.00 | 0.00 | 64 | 1027.0 |
| 20260509234116 | 68 | 245 | 4.3 | 4.3 | 0.00 | 0.00 | 0.00 | 65 | 1027.0 |
| 20260509233616 | 67 | 0 | 1.7 | 6.1 | 0.00 | 0.00 | 0.00 | 66 | 1027.0 |
| 20260509233116 | 67 | 153 | 1.7 | 6.1 | 0.00 | 0.00 | 0.00 | 66 | 1027.0 |
| 20260509232615 | 67 | 261 | 3.5 | 5.2 | 0.00 | 0.00 | 0.00 | 66 | 1027.0 |
| 20260509232115 | 66 | 167 | 3.5 | 5.2 | 0.00 | 0.00 | 0.00 | 67 | 1027.0 |
| 20260509231616 | 65 | 247 | 1.7 | 6.1 | 0.00 | 0.00 | 0.00 | 68 | 1027.0 |
| 20260509231115 | 65 | 169 | 2.6 | 5.2 | 0.00 | 0.00 | 0.00 | 68 | 1027.0 |
| 20260509230615 | 65 | 169 | 1.7 | 5.2 | 0.00 | 0.00 | 0.00 | 69 | 1027.0 |
| 20260509230116 | 65 | 168 | 1.7 | 7.0 | 0.00 | 0.00 | 0.00 | 68 | 1027.0 |
| 20260509225615 | 65 | 131 | 1.7 | 5.2 | 0.00 | 0.00 | 0.00 | 68 | 1027.0 |
| 20260509225117 | 64 | 178 | 2.6 | 6.1 | 0.00 | 0.00 | 0.00 | 68 | 1027.0 |
| 20260509224616 | 64 | 164 | 0.9 | 4.3 | 0.00 | 0.00 | 0.00 | 69 | 1027.0 |
| 20260509224115 | 63 | 158 | 4.3 | 5.2 | 0.00 | 0.00 | 0.00 | 69 | 1027.0 |
| 20260509223615 | 63 | 164 | 0.9 | 3.5 | 0.00 | 0.00 | 0.00 | 70 | 1027.0 |
| 20260509223115 | 63 | 236 | 1.7 | 4.3 | 0.00 | 0.00 | 0.00 | 71 | 1026.0 |
| 20260509222616 | 62 | 174 | 4.3 | 4.3 | 0.00 | 0.00 | 0.00 | 72 | 1027.0 |
| 20260509222115 | 61 | 177 | 1.7 | 5.2 | 0.00 | 0.00 | 0.00 | 72 | 1026.0 |
| 20260509221616 | 62 | 150 | 4.3 | 4.3 | 0.00 | 0.00 | 0.00 | 72 | 1026.0 |
| 20260509221115 | 62 | 202 | 1.7 | 7.0 | 0.00 | 0.00 | 0.00 | 72 | 1026.0 |
| 20260509220616 | 61 | 167 | 4.3 | 7.8 | 0.00 | 0.00 | 0.00 | 72 | 1026.0 |
| 20260509220117 | 62 | 187 | 2.6 | 7.0 | 0.00 | 0.00 | 0.00 | 71 | 1026.0 |
| 20260509215615 | 61 | 162 | 0.0 | 3.5 | 0.00 | 0.00 | 0.00 | 72 | 1026.0 |
| 20260509215115 | 61 | 129 | 2.6 | 3.5 | 0.00 | 0.00 | 0.00 | 73 | 1026.0 |
| 20260509214615 | 60 | 180 | 3.5 | 3.5 | 0.00 | 0.00 | 0.00 | 73 | 1026.0 |
| 20260509214116 | 60 | 131 | 0.0 | 2.6 | 0.00 | 0.00 | 0.00 | 74 | 1026.0 |
| 20260509213615 | 60 | 165 | 0.9 | 1.7 | 0.00 | 0.00 | 0.00 | 75 | 1026.0 |
| 20260509213118 | 59 | 126 | 1.7 | 4.3 | 0.00 | 0.00 | 0.00 | 75 | 1026.0 |
| 20260509212617 | 59 | 180 | 3.5 | 4.3 | 0.00 | 0.00 | 0.00 | 76 | 1026.0 |
| 20260509212116 | 58 | 161 | 1.7 | 3.5 | 0.00 | 0.00 | 0.00 | 77 | 1026.0 |
| 20260509211616 | 58 | 127 | 1.7 | 6.1 | 0.00 | 0.00 | 0.00 | 77 | 1026.0 |
| 20260509211115 | 57 | 234 | 0.0 | 2.6 | 0.00 | 0.00 | 0.00 | 78 | 1025.0 |
| 20260509210615 | 57 | 218 | 0.9 | 2.6 | 0.00 | 0.00 | 0.00 | 79 | 1026.0 |
| 20260509210115 | 57 | 139 | 1.7 | 2.6 | 0.00 | 0.00 | 0.00 | 80 | 1026.0 |
| 20260509205616 | 56 | 195 | 0.0 | 2.6 | 0.00 | 0.00 | 0.00 | 81 | 1025.0 |
| 20260509205115 | 56 | 118 | 1.7 | 2.6 | 0.00 | 0.00 | 0.00 | 82 | 1025.0 |
| 20260509204617 | 55 | 159 | 2.6 | 2.6 | 0.00 | 0.00 | 0.00 | 83 | 1025.0 |
| 20260509204116 | 55 | 147 | 0.0 | 2.6 | 0.00 | 0.00 | 0.00 | 83 | 1025.0 |
| 20260509203616 | 55 | 216 | 0.9 | 2.6 | 0.00 | 0.00 | 0.00 | 83 | 1025.0 |
| 20260509203116 | 55 | 211 | 1.7 | 1.7 | 0.00 | 0.00 | 0.00 | 84 | 1025.0 |
| 20260509202615 | 55 | 181 | 0.9 | 2.6 | 0.00 | 0.00 | 0.00 | 83 | 1025.0 |
| 20260509202115 | 55 | 122 | 0.9 | 2.6 | 0.00 | 0.00 | 0.00 | 83 | 1025.0 |
| 20260509201615 | 55 | 122 | 1.7 | 3.5 | 0.00 | 0.00 | 0.00 | 83 | 1025.0 |
| 20260509201115 | 54 | 151 | 1.7 | 4.3 | 0.00 | 0.00 | 0.00 | 84 | 1025.0 |
| 20260509200615 | 54 | 133 | 1.7 | 3.5 | 0.00 | 0.00 | 0.00 | 83 | 1025.0 |
| 20260509200117 | 55 | 106 | 2.6 | 2.6 | 0.00 | 0.00 | 0.00 | 83 | 1025.0 |
| 20260509195616 | 55 | 149 | 0.0 | 2.6 | 0.00 | 0.00 | 0.00 | 83 | 1025.0 |
| 20260509195115 | 55 | 99 | 1.7 | 2.6 | 0.00 | 0.00 | 0.00 | 82 | 1025.0 |
| 20260509194616 | 55 | 241 | 1.7 | 1.7 | 0.00 | 0.00 | 0.00 | 82 | 1025.0 |
| 20260509194115 | 55 | 325 | 0.0 | 1.7 | 0.00 | 0.00 | 0.00 | 82 | 1025.0 |
| 20260509193615 | 55 | 135 | 0.9 | 4.3 | 0.00 | 0.00 | 0.00 | 82 | 1025.0 |
| 20260509193116 | 55 | 156 | 2.6 | 4.3 | 0.00 | 0.00 | 0.00 | 81 | 1025.0 |
| 20260509192615 | 55 | 147 | 2.6 | 5.2 | 0.00 | 0.00 | 0.00 | 81 | 1025.0 |
| 20260509192115 | 55 | 127 | 1.7 | 3.5 | 0.00 | 0.00 | 0.00 | 80 | 1024.0 |
| 20260509191616 | 56 | 118 | 1.7 | 4.3 | 0.00 | 0.00 | 0.00 | 80 | 1025.0 |
| 20260509191115 | 56 | 88 | 0.9 | 4.3 | 0.00 | 0.00 | 0.00 | 80 | 1024.0 |
| 20260509190617 | 56 | 170 | 2.6 | 3.5 | 0.00 | 0.00 | 0.00 | 80 | 1024.0 |
| 20260509190117 | 56 | 176 | 2.6 | 3.5 | 0.00 | 0.00 | 0.00 | 80 | 1024.0 |
| 20260509185615 | 56 | 87 | 1.7 | 3.5 | 0.00 | 0.00 | 0.00 | 80 | 1024.0 |
| 20260509185116 | 56 | 93 | 1.7 | 3.5 | 0.00 | 0.00 | 0.00 | 80 | 1024.0 |
| 20260509184616 | 56 | 151 | 2.6 | 2.6 | 0.00 | 0.00 | 0.00 | 79 | 1024.0 |
| 20260509184117 | 56 | 113 | 2.6 | 2.6 | 0.00 | 0.00 | 0.00 | 80 | 1024.0 |
| 20260509183616 | 56 | 129 | 0.9 | 2.6 | 0.00 | 0.00 | 0.00 | 79 | 1024.0 |
| 20260509183116 | 56 | 113 | 0.9 | 2.6 | 0.00 | 0.00 | 0.00 | 78 | 1024.0 |
| 20260509182615 | 57 | 161 | 1.7 | 2.6 | 0.00 | 0.00 | 0.00 | 78 | 1024.0 |
| 20260509182116 | 57 | 182 | 0.9 | 3.5 | 0.00 | 0.00 | 0.00 | 77 | 1024.0 |
| 20260509181615 | 57 | 130 | 0.0 | 2.6 | 0.00 | 0.00 | 0.00 | 76 | 1024.0 |
| 20260509181116 | 57 | 209 | 2.6 | 4.3 | 0.00 | 0.00 | 0.00 | 76 | 1024.0 |
| 20260509180616 | 57 | 233 | 1.7 | 4.3 | 0.00 | 0.00 | 0.00 | 76 | 1024.0 |
| 20260509180117 | 57 | 203 | 3.5 | 3.5 | 0.00 | 0.00 | 0.00 | 76 | 1024.0 |
| 20260509175616 | 57 | 174 | 0.9 | 3.5 | 0.00 | 0.00 | 0.00 | 77 | 1024.0 |
| 20260509175116 | 56 | 305 | 1.7 | 2.6 | 0.00 | 0.00 | 0.00 | 78 | 1024.0 |
| 20260509174615 | 56 | 160 | 1.7 | 2.6 | 0.00 | 0.00 | 0.00 | 79 | 1024.0 |
| 20260509174115 | 56 | 173 | 1.7 | 2.6 | 0.00 | 0.00 | 0.00 | 79 | 1024.0 |
| 20260509173615 | 56 | 145 | 0.9 | 2.6 | 0.00 | 0.00 | 0.00 | 79 | 1024.0 |
| 20260509173115 | 56 | 117 | 0.0 | 2.6 | 0.00 | 0.00 | 0.00 | 79 | 1024.0 |
| 20260509172615 | 56 | 151 | 1.7 | 2.6 | 0.00 | 0.00 | 0.00 | 79 | 1024.0 |
| 20260509172115 | 56 | 111 | 2.6 | 3.5 | 0.00 | 0.00 | 0.00 | 80 | 1024.0 |
| 20260509171617 | 56 | 124 | 0.0 | 2.6 | 0.00 | 0.00 | 0.00 | 81 | 1024.0 |
| 20260509171118 | 55 | 88 | 0.9 | 2.6 | 0.00 | 0.00 | 0.00 | 82 | 1024.0 |
| 20260509170616 | 55 | 203 | 0.9 | 2.6 | 0.00 | 0.00 | 0.00 | 82 | 1024.0 |
| 20260509170116 | 56 | 79 | 0.9 | 1.7 | 0.00 | 0.00 | 0.00 | 81 | 1024.0 |
| 20260509165625 | 56 | 163 | 0.0 | 2.6 | 0.00 | 0.00 | 0.00 | 81 | 1024.0 |
| 20260509165119 | 56 | 110 | 0.9 | 3.5 | 0.00 | 0.00 | 0.00 | 79 | 1024.0 |
| 20260509164615 | 56 | 141 | 1.7 | 3.5 | 0.00 | 0.00 | 0.00 | 79 | 1024.0 |
| 20260509164115 | 56 | 289 | 2.6 | 3.5 | 0.00 | 0.00 | 0.00 | 80 | 1024.0 |
| 20260509163615 | 56 | 226 | 1.7 | 2.6 | 0.00 | 0.00 | 0.00 | 80 | 1024.0 |
| 20260509163118 | 56 | 33 | 0.0 | 2.6 | 0.00 | 0.00 | 0.00 | 80 | 1024.0 |
| 20260509162617 | 57 | 163 | 2.6 | 2.6 | 0.00 | 0.00 | 0.00 | 80 | 1024.0 |
| 20260509162116 | 57 | 253 | 1.7 | 4.3 | 0.00 | 0.00 | 0.00 | 80 | 1024.0 |
| 20260509161615 | 56 | 218 | 2.6 | 3.5 | 0.00 | 0.00 | 0.00 | 81 | 1024.0 |
| 20260509161118 | 56 | 167 | 1.7 | 4.3 | 0.00 | 0.00 | 0.00 | 82 | 1024.0 |
| 20260509160616 | 56 | 291 | 3.5 | 4.3 | 0.00 | 0.00 | 0.00 | 82 | 1024.0 |
| 20260509160116 | 56 | 325 | 1.7 | 2.6 | 0.00 | 0.00 | 0.00 | 81 | 1024.0 |
| 20260509155616 | 57 | 232 | 2.6 | 2.6 | 0.00 | 0.00 | 0.00 | 81 | 1024.0 |
| 20260509155116 | 57 | 287 | 3.5 | 5.2 | 0.00 | 0.00 | 0.00 | 80 | 1024.0 |
| 20260509154615 | 57 | 265 | 2.6 | 3.5 | 0.00 | 0.00 | 0.00 | 80 | 1024.0 |
| 20260509154115 | 57 | 187 | 1.7 | 3.5 | 0.00 | 0.00 | 0.00 | 80 | 1024.0 |
| 20260509153616 | 57 | 178 | 2.6 | 5.2 | 0.00 | 0.00 | 0.00 | 81 | 1024.0 |
| 20260509153117 | 56 | 265 | 0.0 | 2.6 | 0.00 | 0.00 | 0.00 | 81 | 1024.0 |
| 20260509152615 | 56 | 113 | 0.0 | 2.6 | 0.00 | 0.00 | 0.00 | 81 | 1024.0 |
| 20260509152117 | 56 | 106 | 0.9 | 2.6 | 0.00 | 0.00 | 0.00 | 81 | 1024.0 |
| 20260509151615 | 56 | 75 | 0.9 | 2.6 | 0.00 | 0.00 | 0.00 | 80 | 1024.0 |
| 20260509151115 | 57 | 112 | 1.7 | 1.7 | 0.00 | 0.00 | 0.00 | 80 | 1024.0 |
| 20260509150615 | 57 | 178 | 1.7 | 2.6 | 0.00 | 0.00 | 0.00 | 81 | 1024.0 |
| 20260509150116 | 57 | 160 | 0.9 | 1.7 | 0.00 | 0.00 | 0.00 | 81 | 1024.0 |
| 20260509145616 | 57 | 134 | 0.9 | 2.6 | 0.00 | 0.00 | 0.00 | 81 | 1024.0 |
| 20260509145118 | 57 | 111 | 0.9 | 2.6 | 0.00 | 0.00 | 0.00 | 81 | 1024.0 |
| 20260509144617 | 57 | 266 | 0.9 | 1.7 | 0.00 | 0.00 | 0.00 | 81 | 1025.0 |
| 20260509144115 | 57 | 127 | 1.7 | 2.6 | 0.00 | 0.00 | 0.00 | 80 | 1024.0 |
| 20260509143619 | 57 | 183 | 2.6 | 2.6 | 0.00 | 0.00 | 0.00 | 81 | 1024.0 |
| 20260509143117 | 57 | 162 | 0.9 | 1.7 | 0.00 | 0.00 | 0.00 | 82 | 1024.0 |
| 20260509142145 | 57 | 158 | 1.7 | 2.6 | 0.00 | 0.00 | 0.00 | 82 | 1024.0 |
| 20260509141615 | 57 | 150 | 1.7 | 2.6 | 0.00 | 0.00 | 0.00 | 82 | 1024.0 |
| 20260509141115 | 57 | 323 | 1.7 | 2.6 | 0.00 | 0.00 | 0.00 | 81 | 1024.0 |
| 20260509140617 | 58 | 137 | 0.0 | 1.7 | 0.00 | 0.00 | 0.00 | 80 | 1024.0 |
| 20260509140116 | 58 | 254 | 0.0 | 2.6 | 0.00 | 0.00 | 0.00 | 81 | 1024.0 |
| 20260509135617 | 58 | 348 | 1.7 | 2.6 | 0.00 | 0.00 | 0.00 | 80 | 1024.0 |
| 20260509135117 | 58 | 153 | 1.7 | 2.6 | 0.00 | 0.00 | 0.00 | 79 | 1024.0 |
| 20260509134616 | 59 | 93 | 1.7 | 2.6 | 0.00 | 0.00 | 0.00 | 78 | 1024.0 |
| 20260509134115 | 58 | 311 | 1.7 | 2.6 | 0.00 | 0.00 | 0.00 | 79 | 1024.0 |
| 20260509133615 | 58 | 184 | 0.9 | 2.6 | 0.00 | 0.00 | 0.00 | 80 | 1024.0 |
| 20260509133118 | 58 | 110 | 0.0 | 2.6 | 0.00 | 0.00 | 0.00 | 79 | 1024.0 |
| 20260509132615 | 58 | 184 | 2.6 | 2.6 | 0.00 | 0.00 | 0.00 | 79 | 1024.0 |
| 20260509132116 | 59 | 89 | 0.0 | 3.5 | 0.00 | 0.00 | 0.00 | 78 | 1024.0 |
| 20260509131616 | 59 | 176 | 0.9 | 3.5 | 0.00 | 0.00 | 0.00 | 78 | 1024.0 |
| 20260509131115 | 59 | 43 | 0.9 | 3.5 | 0.00 | 0.00 | 0.00 | 78 | 1024.0 |
| 20260509130616 | 59 | 26 | 1.7 | 2.6 | 0.00 | 0.00 | 0.00 | 77 | 1024.0 |
| 20260509130117 | 59 | 132 | 1.7 | 2.6 | 0.00 | 0.00 | 0.00 | 77 | 1024.0 |
| 20260509125615 | 59 | 251 | 0.0 | 3.5 | 0.00 | 0.00 | 0.00 | 78 | 1024.0 |
| 20260509125115 | 60 | 105 | 1.7 | 3.5 | 0.00 | 0.00 | 0.00 | 77 | 1024.0 |
| 20260509124615 | 60 | 172 | 2.6 | 3.5 | 0.00 | 0.00 | 0.00 | 77 | 1024.0 |
| 20260509124117 | 60 | 329 | 3.5 | 5.2 | 0.00 | 0.00 | 0.00 | 78 | 1025.0 |
| 20260509123615 | 59 | 194 | 1.7 | 2.6 | 0.00 | 0.00 | 0.00 | 80 | 1025.0 |
| 20260509123117 | 59 | 25 | 1.7 | 2.6 | 0.00 | 0.00 | 0.00 | 79 | 1025.0 |
| 20260509122615 | 59 | 125 | 0.0 | 2.6 | 0.00 | 0.00 | 0.00 | 79 | 1025.0 |
| 20260509122116 | 60 | 89 | 1.7 | 4.3 | 0.00 | 0.00 | 0.00 | 77 | 1024.0 |
| 20260509121615 | 61 | 109 | 0.0 | 3.5 | 0.00 | 0.00 | 0.00 | 75 | 1024.0 |
| 20260509121116 | 61 | 197 | 1.7 | 5.2 | 0.00 | 0.00 | 0.00 | 75 | 1024.0 |
| 20260509120615 | 61 | 248 | 0.9 | 1.7 | 0.00 | 0.00 | 0.00 | 75 | 1024.0 |
| 20260509120116 | 61 | 164 | 0.0 | 0.0 | 0.00 | 0.00 | 0.00 | 75 | 1024.0 |
| 20260509115615 | 61 | 220 | 0.0 | 1.7 | 0.00 | 0.00 | 0.00 | 75 | 1025.0 |
| 20260509115116 | 61 | 226 | 0.9 | 2.6 | 0.00 | 0.00 | 0.00 | 76 | 1025.0 |
| 20260509114616 | 60 | 224 | 0.0 | 0.9 | 0.00 | 0.00 | 0.00 | 77 | 1025.0 |
| 20260509114117 | 60 | 180 | 0.0 | 0.9 | 0.00 | 0.00 | 0.00 | 78 | 1024.0 |
| 20260509113616 | 60 | 106 | 0.0 | 1.7 | 0.00 | 0.00 | 0.00 | 77 | 1024.0 |
| 20260509113115 | 61 | 89 | 0.0 | 1.7 | 0.00 | 0.00 | 0.00 | 76 | 1024.0 |
| 20260509112617 | 61 | 157 | 0.0 | 0.9 | 0.00 | 0.00 | 0.00 | 75 | 1024.0 |
| 20260509112116 | 62 | 154 | 0.9 | 1.7 | 0.00 | 0.00 | 0.00 | 74 | 1025.0 |
| 20260509111617 | 62 | 145 | 1.7 | 1.7 | 0.00 | 0.00 | 0.00 | 73 | 1024.0 |
| 20260509111115 | 62 | 268 | 0.9 | 2.6 | 0.00 | 0.00 | 0.00 | 74 | 1025.0 |
| 20260509110615 | 62 | 157 | 0.0 | 1.7 | 0.00 | 0.00 | 0.00 | 73 | 1024.0 |
| 20260509110115 | 62 | 158 | 1.7 | 1.7 | 0.00 | 0.00 | 0.00 | 73 | 1024.0 |
| 20260509105616 | 63 | 128 | 1.7 | 2.6 | 0.00 | 0.00 | 0.00 | 72 | 1024.0 |
| 20260509105117 | 62 | 120 | 1.7 | 1.7 | 0.00 | 0.00 | 0.00 | 72 | 1024.0 |
| 20260509104616 | 63 | 154 | 0.0 | 0.9 | 0.00 | 0.00 | 0.00 | 71 | 1025.0 |
| 20260509104115 | 63 | 217 | 0.0 | 0.0 | 0.00 | 0.00 | 0.00 | 71 | 1024.0 |
| 20260509103616 | 63 | 266 | 0.0 | 0.0 | 0.00 | 0.00 | 0.00 | 71 | 1024.0 |
| 20260509103117 | 63 | 225 | 1.7 | 1.7 | 0.00 | 0.00 | 0.00 | 71 | 1024.0 |
| 20260509102615 | 63 | 204 | 0.0 | 1.7 | 0.00 | 0.00 | 0.00 | 72 | 1025.0 |
| 20260509102115 | 63 | 185 | 0.0 | 1.7 | 0.00 | 0.00 | 0.00 | 71 | 1024.0 |
| 20260509101615 | 63 | 135 | 0.0 | 0.0 | 0.00 | 0.00 | 0.00 | 71 | 1024.0 |
| 20260509101117 | 63 | 242 | 0.0 | 0.9 | 0.00 | 0.00 | 0.00 | 71 | 1024.0 |
| 20260509100617 | 63 | 269 | 0.0 | 0.9 | 0.00 | 0.00 | 0.00 | 70 | 1024.0 |
| 20260509100117 | 64 | 17 | 0.0 | 0.9 | 0.00 | 0.00 | 0.00 | 69 | 1024.0 |
| 20260509095615 | 64 | 81 | 0.0 | 0.9 | 0.00 | 0.00 | 0.00 | 67 | 1024.0 |
| 20260509095116 | 65 | 126 | 0.9 | 1.7 | 0.00 | 0.00 | 0.00 | 67 | 1024.0 |
| 20260509094616 | 65 | 86 | 1.7 | 1.7 | 0.00 | 0.00 | 0.00 | 67 | 1024.0 |
| 20260509094116 | 64 | 89 | 1.7 | 2.6 | 0.00 | 0.00 | 0.00 | 68 | 1024.0 |
| 20260509093616 | 64 | 94 | 1.7 | 2.6 | 0.00 | 0.00 | 0.00 | 68 | 1024.0 |
| 20260509093116 | 65 | 89 | 1.7 | 2.6 | 0.00 | 0.00 | 0.00 | 67 | 1024.0 |
| 20260509092617 | 65 | 88 | 1.7 | 2.6 | 0.00 | 0.00 | 0.00 | 66 | 1024.0 |
| 20260509092115 | 65 | 96 | 1.7 | 1.7 | 0.00 | 0.00 | 0.00 | 66 | 1024.0 |
| 20260509091616 | 66 | 93 | 0.9 | 1.7 | 0.00 | 0.00 | 0.00 | 64 | 1024.0 |
| 20260509091117 | 66 | 79 | 0.9 | 2.6 | 0.00 | 0.00 | 0.00 | 63 | 1024.0 |
| 20260509090616 | 66 | 77 | 1.7 | 2.6 | 0.00 | 0.00 | 0.00 | 63 | 1024.0 |
| 20260509090117 | 66 | 88 | 1.7 | 3.5 | 0.00 | 0.00 | 0.00 | 63 | 1024.0 |
| 20260509085615 | 66 | 103 | 2.6 | 3.5 | 0.00 | 0.00 | 0.00 | 63 | 1024.0 |
| 20260509085116 | 66 | 78 | 1.7 | 2.6 | 0.00 | 0.00 | 0.00 | 62 | 1024.0 |
| 20260509084615 | 66 | 98 | 2.6 | 3.5 | 0.00 | 0.00 | 0.00 | 62 | 1023.0 |
| 20260509084116 | 67 | 103 | 3.5 | 4.3 | 0.00 | 0.00 | 0.00 | 61 | 1023.0 |
| 20260509083615 | 67 | 92 | 2.6 | 3.5 | 0.00 | 0.00 | 0.00 | 60 | 1023.0 |
| 20260509083116 | 68 | 69 | 2.6 | 3.5 | 0.00 | 0.00 | 0.00 | 59 | 1023.0 |
| 20260509082616 | 68 | 67 | 2.6 | 3.5 | 0.00 | 0.00 | 0.00 | 59 | 1023.0 |
| 20260509082116 | 68 | 78 | 4.3 | 4.3 | 0.00 | 0.00 | 0.00 | 59 | 1023.0 |
| 20260509081618 | 68 | 66 | 3.5 | 4.3 | 0.00 | 0.00 | 0.00 | 58 | 1023.0 |
| 20260509081116 | 68 | 68 | 3.5 | 4.3 | 0.00 | 0.00 | 0.00 | 58 | 1023.0 |
| 20260509080618 | 68 | 87 | 2.6 | 4.3 | 0.00 | 0.00 | 0.00 | 57 | 1023.0 |
| 20260509080117 | 68 | 83 | 2.6 | 3.5 | 0.00 | 0.00 | 0.00 | 57 | 1023.0 |
| 20260509075615 | 68 | 71 | 3.5 | 3.5 | 0.00 | 0.00 | 0.00 | 57 | 1023.0 |
| 20260509075116 | 68 | 69 | 2.6 | 3.5 | 0.00 | 0.00 | 0.00 | 56 | 1023.0 |
| 20260509074616 | 68 | 73 | 2.6 | 4.3 | 0.00 | 0.00 | 0.00 | 56 | 1023.0 |
| 20260509074115 | 68 | 63 | 4.3 | 4.3 | 0.00 | 0.00 | 0.00 | 55 | 1023.0 |
| 20260509073616 | 68 | 92 | 4.3 | 4.3 | 0.00 | 0.00 | 0.00 | 55 | 1023.0 |
| 20260509073115 | 69 | 72 | 1.7 | 3.5 | 0.00 | 0.00 | 0.00 | 55 | 1023.0 |
| 20260509072615 | 69 | 85 | 2.6 | 4.3 | 0.00 | 0.00 | 0.00 | 54 | 1023.0 |
| 20260509072115 | 69 | 67 | 2.6 | 3.5 | 0.00 | 0.00 | 0.00 | 54 | 1023.0 |
| 20260509071616 | 69 | 72 | 3.5 | 5.2 | 0.00 | 0.00 | 0.00 | 53 | 1023.0 |
| 20260509071117 | 69 | 66 | 3.5 | 5.2 | 0.00 | 0.00 | 0.00 | 53 | 1023.0 |
| 20260509070616 | 69 | 98 | 3.5 | 4.3 | 0.00 | 0.00 | 0.00 | 52 | 1023.0 |
| 20260509070115 | 70 | 89 | 2.6 | 5.2 | 0.00 | 0.00 | 0.00 | 51 | 1022.0 |
| 20260509065615 | 70 | 86 | 3.5 | 5.2 | 0.00 | 0.00 | 0.00 | 51 | 1022.0 |
| 20260509065115 | 71 | 52 | 4.3 | 7.0 | 0.00 | 0.00 | 0.00 | 50 | 1022.0 |
| 20260509064616 | 71 | 96 | 5.2 | 7.0 | 0.00 | 0.00 | 0.00 | 49 | 1022.0 |
| 20260509064116 | 71 | 105 | 4.3 | 7.8 | 0.00 | 0.00 | 0.00 | 49 | 1022.0 |
| 20260509063616 | 71 | 66 | 7.8 | 8.7 | 0.00 | 0.00 | 0.00 | 48 | 1022.0 |
| 20260509063117 | 72 | 81 | 4.3 | 7.8 | 0.00 | 0.00 | 0.00 | 47 | 1022.0 |
| 20260509062617 | 72 | 82 | 4.3 | 7.0 | 0.00 | 0.00 | 0.00 | 46 | 1022.0 |
| 20260509062116 | 72 | 105 | 2.6 | 7.8 | 0.00 | 0.00 | 0.00 | 44 | 1022.0 |
| 20260509061616 | 72 | 116 | 7.0 | 9.6 | 0.00 | 0.00 | 0.00 | 45 | 1022.0 |
| 20260509061117 | 72 | 119 | 5.2 | 8.7 | 0.00 | 0.00 | 0.00 | 46 | 1022.0 |
| 20260509060616 | 72 | 99 | 4.3 | 8.7 | 0.00 | 0.00 | 0.00 | 47 | 1022.0 |
| 20260509060118 | 72 | 53 | 7.8 | 9.6 | 0.00 | 0.00 | 0.00 | 47 | 1022.0 |
| 20260509055615 | 72 | 44 | 5.2 | 6.1 | 0.00 | 0.00 | 0.00 | 47 | 1022.0 |
| 20260509055115 | 72 | 92 | 6.1 | 7.8 | 0.00 | 0.00 | 0.00 | 46 | 1022.0 |
| 20260509054616 | 73 | 92 | 7.0 | 9.6 | 0.00 | 0.00 | 0.00 | 45 | 1022.0 |
| 20260509054115 | 73 | 119 | 5.2 | 9.6 | 0.00 | 0.00 | 0.00 | 44 | 1022.0 |
| 20260509053615 | 73 | 103 | 4.3 | 6.1 | 0.00 | 0.00 | 0.00 | 45 | 1021.0 |
| 20260509053116 | 73 | 105 | 1.7 | 6.1 | 0.00 | 0.00 | 0.00 | 45 | 1022.0 |
| 20260509052616 | 73 | 126 | 5.2 | 6.1 | 0.00 | 0.00 | 0.00 | 45 | 1021.0 |
| 20260509052116 | 73 | 121 | 4.3 | 7.0 | 0.00 | 0.00 | 0.00 | 46 | 1022.0 |
| 20260509051615 | 73 | 121 | 3.5 | 7.8 | 0.00 | 0.00 | 0.00 | 46 | 1021.0 |
| 20260509051117 | 73 | 100 | 6.1 | 9.6 | 0.00 | 0.00 | 0.00 | 45 | 1022.0 |
| 20260509050615 | 73 | 32 | 3.5 | 5.2 | 0.00 | 0.00 | 0.00 | 44 | 1022.0 |
| 20260509050116 | 73 | 32 | 4.3 | 4.3 | 0.00 | 0.00 | 0.00 | 44 | 1022.0 |
| 20260509045616 | 74 | 96 | 2.6 | 5.2 | 0.00 | 0.00 | 0.00 | 44 | 1022.0 |